Weather in Berezdiv

Ukraine / Khmelnitsky District     50°27′20″N   27°07′09″E
temp.,
°C
wind,
m/s
gust,
m/s
humid.,
%
clouds,
%
prec.,
mm/h
press.,
hPa
HPBL,
m
17 may, tue
tue1700:00+8nnw227169 0.0 102020
03:00+7sw226663 0.0 101910
06:00+7wsw3369100 0.0 101846
09:00+12wnw5765100 0.0 1017440
12:00+15nw6105767 0.1 10171766
15:00+15nw8104725 0.1 10161851
18:00+13nnw795286 0.0 10161769
21:00+7nw496261 0.0 1017195
18 may, wed
wed1800:00+5nw49730 0.0 1018218
03:00+3nw511845 0.0 1020375
06:00+4nw5118370 0.0 1020704
09:00+7nnw8126845 0.0 1022938
12:00+11nnw81154100 0.0 10231697
15:00+13nnw895395 0.0 10241829
18:00+14nnw695711 0.0 10241776
21:00+8nw46745 0.0 102692
19 may, thu
thu1900:00+6nw47845 0.0 1028113
03:00+5nw36895 0.0 102892
06:00+5wnw36927 0.0 102995
09:00+11nw466818 0.0 1029457
12:00+15wnw56525 0.0 10281222
15:00+17wnw574879 0.0 10271462
18:00+17wnw5757100 0.0 10261287
21:00+12w4574100 0.0 102666
20 may, fri
fri2000:00+10w337572 0.0 102628
03:00+8sw337771 0.0 102528
06:00+8sw358127 0.0 102571
09:00+14sw4665100 0.0 1024271
12:00+19wsw6853100 0.0 1021823
15:00+20wsw6954100 0.0 10191089
18:00+20w5106241 0.0 10181156
21:00+15wsw4118198 0.0 1017197
21 may, sat
sat2100:00+14wsw51383100 0.0 1015298
03:00+15sw61280100 0.1 1013299
06:00+13wsw51586100 0.4 1012421
09:00+13wsw51689100 1.3 1010572
12:00+18w10168546 0.3 10081177
15:00+19wnw9147877 0.8 10091270
18:00+19wnw81277100 0.6 10091097
21:00+14wnw369395 0.8 1010122